| time (UTC) | temp F | wind direction | speed knots | gust knots | rain 1hr in | rain 24hr in | rain mn in | humidity % | barometer mb |
| 20260505093046 | 65 | 137 | 0.9 | 2.6 | 0.00 | 0.00 | 0.00 | 96 | 1010.6 |
| 20260505091543 | 65 | 265 | 0.0 | 2.6 | 0.00 | 0.00 | 0.00 | 96 | 1010.7 |
| 20260505090042 | 65 | 123 | 1.7 | 4.3 | 0.00 | 0.00 | 0.00 | 96 | 1010.8 |
| 20260505084548 | 66 | 0 | 0.0 | 1.7 | 0.00 | 0.00 | 0.00 | 95 | 1010.9 |
| 20260505083038 | 66 | 0 | 0.0 | 5.2 | 0.00 | 0.00 | 0.00 | 95 | 1010.8 |
| 20260505081544 | 66 | 158 | 0.0 | 1.7 | 0.00 | 0.00 | 0.00 | 95 | 1010.8 |
| 20260505080049 | 66 | 153 | 0.9 | 6.1 | 0.00 | 0.00 | 0.00 | 95 | 1010.7 |
| 20260505074543 | 65 | 0 | 0.9 | 3.5 | 0.00 | 0.00 | 0.00 | 95 | 1010.7 |
| 20260505073052 | 65 | 144 | 0.9 | 2.6 | 0.00 | 0.00 | 0.00 | 95 | 1011.0 |
| 20260505071544 | 65 | 93 | 0.9 | 2.6 | 0.00 | 0.00 | 0.00 | 95 | 1010.8 |
| 20260505070051 | 66 | 123 | 0.9 | 2.6 | 0.00 | 0.00 | 0.00 | 94 | 1011.1 |
| 20260505064543 | 66 | 144 | 0.9 | 5.2 | 0.00 | 0.00 | 0.00 | 94 | 1011.2 |
| 20260505063106 | 66 | 129 | 1.7 | 4.3 | 0.00 | 0.00 | 0.00 | 95 | 1011.5 |
| 20260505061543 | 65 | 123 | 0.9 | 4.3 | 0.00 | 0.00 | 0.00 | 95 | 1011.6 |
| 20260505060042 | 65 | 124 | 0.9 | 2.6 | 0.00 | 0.00 | 0.00 | 94 | 1011.7 |
| 20260505054542 | 65 | 129 | 0.9 | 4.3 | 0.00 | 0.00 | 0.00 | 94 | 1011.7 |
| 20260505053049 | 65 | 93 | 0.9 | 2.6 | 0.00 | 0.00 | 0.00 | 93 | 1011.9 |
| 20260505051544 | 66 | 115 | 0.9 | 3.5 | 0.00 | 0.00 | 0.00 | 93 | 1012.1 |
| 20260505041550 | 67 | 108 | 1.7 | 6.1 | 0.00 | 0.00 | 0.00 | 91 | 1012.1 |
| 20260505040053 | 67 | 173 | 1.7 | 6.1 | 0.00 | 0.00 | 0.00 | 91 | 1012.5 |
| 20260505034544 | 68 | 142 | 1.7 | 5.2 | 0.00 | 0.00 | 0.00 | 90 | 1012.8 |
| 20260505033041 | 68 | 157 | 2.6 | 7.0 | 0.00 | 0.00 | 0.00 | 89 | 1012.7 |
| 20260505031543 | 68 | 164 | 2.6 | 5.2 | 0.00 | 0.00 | 0.00 | 89 | 1012.4 |
| 20260505030045 | 68 | 150 | 1.7 | 5.2 | 0.00 | 0.00 | 0.00 | 88 | 1012.5 |
| 20260505024556 | 69 | 165 | 1.7 | 7.0 | 0.00 | 0.00 | 0.00 | 87 | 1012.5 |
| 20260505023044 | 69 | 153 | 2.6 | 7.8 | 0.00 | 0.00 | 0.00 | 86 | 1012.5 |
| 20260505021544 | 70 | 162 | 3.5 | 8.7 | 0.00 | 0.00 | 0.00 | 85 | 1012.3 |
| 20260505020041 | 70 | 173 | 3.5 | 8.7 | 0.00 | 0.00 | 0.00 | 85 | 1012.1 |
| 20260505014603 | 70 | 149 | 3.5 | 8.7 | 0.00 | 0.00 | 0.00 | 84 | 1012.0 |
| 20260505013046 | 70 | 162 | 5.2 | 12.2 | 0.00 | 0.00 | 0.00 | 83 | 1012.0 |
| 20260505011554 | 71 | 175 | 5.2 | 9.6 | 0.00 | 0.00 | 0.00 | 83 | 1012.1 |
| 20260505010044 | 71 | 157 | 4.3 | 10.4 | 0.00 | 0.00 | 0.00 | 82 | 1012.2 |
| 20260505004543 | 71 | 150 | 3.5 | 10.4 | 0.00 | 0.00 | 0.00 | 81 | 1012.2 |
| 20260505003044 | 72 | 138 | 5.2 | 10.4 | 0.00 | 0.00 | 0.00 | 80 | 1012.2 |
| 20260505001544 | 72 | 124 | 5.2 | 9.6 | 0.00 | 0.00 | 0.00 | 79 | 1012.3 |
| 20260505000057 | 73 | 155 | 1.7 | 10.4 | 0.00 | 0.00 | 0.00 | 78 | 1012.6 |
| 20260504234548 | 73 | 171 | 2.6 | 8.7 | 0.00 | 0.00 | 0.00 | 77 | 1012.7 |
| 20260504233104 | 74 | 115 | 4.3 | 13.9 | 0.00 | 0.00 | 0.00 | 76 | 1012.7 |
| 20260504231538 | 75 | 163 | 4.3 | 12.2 | 0.00 | 0.00 | 0.00 | 73 | 1012.7 |
| 20260504230044 | 75 | 171 | 4.3 | 13.0 | 0.00 | 0.00 | 0.00 | 73 | 1012.9 |
| 20260504224548 | 76 | 232 | 2.6 | 13.9 | 0.00 | 0.00 | 0.00 | 72 | 1013.0 |
| 20260504223055 | 76 | 265 | 6.1 | 13.0 | 0.00 | 0.00 | 0.00 | 73 | 1013.0 |
| 20260504221539 | 76 | 182 | 4.3 | 14.8 | 0.00 | 0.00 | 0.00 | 73 | 1013.1 |
| 20260504220044 | 76 | 259 | 5.2 | 14.8 | 0.00 | 0.00 | 0.00 | 73 | 1013.2 |
| 20260504214544 | 77 | 198 | 4.3 | 11.3 | 0.00 | 0.00 | 0.00 | 72 | 1013.3 |
| 20260504213053 | 77 | 188 | 8.7 | 14.8 | 0.00 | 0.00 | 0.00 | 70 | 1013.5 |
| 20260504211541 | 76 | 183 | 6.1 | 13.9 | 0.00 | 0.00 | 0.00 | 71 | 1013.6 |
| 20260504210046 | 76 | 165 | 2.6 | 11.3 | 0.00 | 0.00 | 0.00 | 70 | 1014.1 |
| 20260504204545 | 76 | 162 | 6.1 | 14.8 | 0.00 | 0.00 | 0.00 | 71 | 1014.3 |
| 20260504203058 | 77 | 209 | 3.5 | 15.6 | 0.00 | 0.00 | 0.00 | 70 | 1014.2 |
| 20260504201541 | 77 | 178 | 4.3 | 13.9 | 0.00 | 0.00 | 0.00 | 69 | 1014.5 |
| 20260504200046 | 76 | 170 | 5.2 | 13.0 | 0.00 | 0.00 | 0.00 | 69 | 1014.9 |
| 20260504194538 | 76 | 225 | 4.3 | 15.6 | 0.00 | 0.00 | 0.00 | 69 | 1015.1 |
| 20260504193044 | 76 | 187 | 6.1 | 15.6 | 0.00 | 0.00 | 0.00 | 69 | 1015.3 |
| 20260504191548 | 76 | 178 | 3.5 | 16.5 | 0.00 | 0.00 | 0.00 | 70 | 1015.2 |
| 20260504190049 | 77 | 225 | 7.8 | 15.6 | 0.00 | 0.00 | 0.00 | 67 | 1015.6 |
| 20260504184540 | 76 | 213 | 6.1 | 14.8 | 0.00 | 0.00 | 0.00 | 68 | 1015.8 |
| 20260504183044 | 76 | 175 | 7.0 | 13.0 | 0.00 | 0.00 | 0.00 | 67 | 1015.9 |
| 20260504181548 | 76 | 160 | 7.8 | 18.2 | 0.00 | 0.00 | 0.00 | 68 | 1015.8 |
| 20260504180046 | 75 | 177 | 9.6 | 16.5 | 0.00 | 0.00 | 0.00 | 67 | 1016.1 |
| 20260504174544 | 76 | 186 | 5.2 | 13.9 | 0.00 | 0.00 | 0.00 | 66 | 1016.2 |
| 20260504173041 | 75 | 160 | 6.1 | 14.8 | 0.00 | 0.00 | 0.00 | 68 | 1016.4 |
| 20260504171545 | 76 | 178 | 2.6 | 8.7 | 0.00 | 0.00 | 0.00 | 70 | 1016.5 |